Regional Weather Roundup
Issued by NWS Cleveland, OH

Home | Current Version | Previous Version | Text Only | Print | Product List | Glossary Off
Versions: 1 2 3 4 5 6 7 8 9 10 11 12 13 14 15 16 17 18 19 20 21 22 23 24 25 26 27 28 29 30 31 32 33 34 35 36 37 38 39 40 41 42 43 44 45 46 47 48 49 50

000
ASUS41 KCLE 191202
RWRCLE
OHIO REGIONAL WEATHER ROUNDUP
NATIONAL WEATHER SERVICE CLEVELAND, OH
700 AM EST SUN NOV 19 2017

NOTE: "FAIR" INDICATES FEW OR NO CLOUDS BELOW 12,000 FEET WITH NO
SIGNIFICANT WEATHER AND/OR OBSTRUCTIONS TO VISIBILITY.

OHZ001>008-015>018-024>027-034-035-043-044-191300-
   NORTHWEST OHIO

CITY           SKY/WX    TMP DP  RH WIND       PRES   REMARKS
DEFIANCE       CLOUDY    36  32  85 NW7       29.84R
FINDLAY        CLOUDY    38  31  76 NW10      29.82R
TOLEDO EXPRESS CLOUDY    37  30  75 NW12      29.81R
TOLEDO EXEC    CLOUDY    38  27  64 NW17G26   29.82R
LIMA           NOT AVBL
$$

OHZ009>014-019>023-028>033-038-089-191300-
   NORTHEAST OHIO

CITY           SKY/WX    TMP DP  RH WIND       PRES   REMARKS
CLE-HOPKINS    CLOUDY    39  29  67 W15       29.77R
CLE-LAKEFRONT  CLOUDY    40  28  62 NW30G37   29.74R
CUY CO. ARPT   CLOUDY    41  30  65 NW18G25   29.72
LORAIN-ELYRIA  CLOUDY    38  25  59 NW20G26   29.77R
ASHTABULA      CLOUDY    38  31  76 W13       29.68R
AKRON-CANTON   FLURRIES  36  31  82 NW14G22   29.73R
WOOSTER        CLOUDY    36  29  75 NW16      29.76R
MANSFIELD      CLOUDY    35  31  85 W10G20    29.78R WCI  27
YOUNGSTOWN     CLOUDY    38  30  73 W20G26    29.67R
$$

OHZ042-051>053-060>062-070>072-077>081-191300-
  SOUTHWEST OHIO

CITY           SKY/WX    TMP DP  RH WIND       PRES   REMARKS
CINC-COVINGTON CLOUDY    38  31  76 W9        29.93R
CINC-LUNKEN    CLOUDY    40  30  67 W13       29.95R
HAMILTON       CLOUDY    39  31  72 W8        29.94R
DAYTON         CLOUDY    37  33  85 W14       29.89R
WRIGHT-PAT AFB CLOUDY    38  33  79 W10       29.88R
DAYTON GENERAL CLOUDY    38  30  73 W10       29.89R
WILMINGTON     CLOUDY    37  32  82 W13       29.88R
$$

OHZ036-037-039>041-045>050-054>059-063>069-073>076-082>088-191300-
  CENTRAL AND SOUTHEAST OHIO

CITY           SKY/WX    TMP DP  RH WIND       PRES   REMARKS
COLUMBUS       CLOUDY    39  32  76 NW10      29.83R
OSU AIRPORT    CLOUDY    38  33  82 W9        29.84R
BOLTON FIELD   CLOUDY    38  32  80 NW9       29.85R
RICKENBACK AFB CLOUDY    38  33  84 NW10      29.85R
NEWARK         CLOUDY    40  28  62 W18G29    29.81R
MARION         CLOUDY    37  29  72 NW9       29.83R
LANCASTER      CLOUDY    38  34  85 W8        29.84R
ZANESVILLE     CLOUDY    38  32  79 W6        29.80R
NEW PHILLY     NOT AVBL
$$




USA.gov is the U.S. government's official web portal to all federal, state and local government web resources and services.